• In Germany
  • List of Countries
  • For 7 days
  • Water Temperature
  • Satellite Maps
  • Weather Map
  • Weather Widgets
  • user-avatar
    Login

    Hourly Weather Topka

    Today, 22 July, Sunday

    Time Temperature Precipitation Wind Pressure Humidity
    00:00 +15°C° 0 mm 2 mps 689 mmHg 85%
    01:00 +15°C° 0 mm 2 mps 689 mmHg 85%
    02:00 +15°C° 0 mm 2 mps 689 mmHg 87%
    03:00 +14°C° 0 mm 1 mps 689 mmHg 88%
    04:00 +14°C° 0 mm 1 mps 690 mmHg 89%
    05:00 +15°C° 0 mm 1 mps 690 mmHg 84%
    06:00 +16°C° 0 mm 1 mps 691 mmHg 79%
    07:00 +18°C° 0 mm 1 mps 691 mmHg 72%
    08:00 +20°C° 0 mm 1 mps 691 mmHg 65%
    09:00 +20°C° 0 mm 2 mps 691 mmHg 57%
    10:00 +21°C° 0 mm 2 mps 691 mmHg 49%
    11:00 +23°C° 0 mm 2 mps 691 mmHg 46%
    12:00 +24°C° 0 mm 2 mps 691 mmHg 43%
    13:00 +25°C° 0 mm 2 mps 691 mmHg 39%
    14:00 +26°C° 0 mm 2 mps 691 mmHg 39%
    15:00 +26°C° 0 mm 2 mps 690 mmHg 38%
    16:00 +26°C° 0 mm 1 mps 690 mmHg 38%
    17:00 +25°C° 0 mm 1 mps 690 mmHg 44%
    18:00 +23°C° 0 mm 1 mps 690 mmHg 51%
    19:00 +20°C° 0 mm 0 mps 690 mmHg 58%
    20:00 +20°C° 0 mm 1 mps 690 mmHg 61%
    21:00 +19°C° 0 mm 1 mps 689 mmHg 63%
    22:00 +16°C° 0 mm 1 mps 689 mmHg 66%
    23:00 +15°C° 0 mm 1 mps 689 mmHg 68%

    Tomorrow, 23 July, Monday

    Time Temperature Precipitation Wind Pressure Humidity
    00:00 +15°C° 0 mm 1 mps 689 mmHg 70%
    01:00 +14°C° 0 mm 1 mps 689 mmHg 73%
    02:00 +14°C° 0 mm 1 mps 689 mmHg 74%
    03:00 +14°C° 0 mm 1 mps 689 mmHg 75%
    04:00 +13°C° 0 mm 1 mps 689 mmHg 77%
    05:00 +15°C° 0 mm 1 mps 689 mmHg 71%
    06:00 +18°C° 0 mm 1 mps 689 mmHg 65%
    07:00 +20°C° 0 mm 1 mps 690 mmHg 59%
    08:00 +22°C° 0 mm 1 mps 690 mmHg 55%
    09:00 +24°C° 0 mm 1 mps 690 mmHg 50%
    10:00 +24°C° 0 mm 0 mps 690 mmHg 46%
    11:00 +28°C° 0 mm 1 mps 689 mmHg 43%
    12:00 +29°C° 0 mm 1 mps 689 mmHg 40%
    13:00 +30°C° 0 mm 1 mps 689 mmHg 37%
    14:00 +30°C° 0 mm 1 mps 689 mmHg 37%
    15:00 +31°C° 0 mm 1 mps 688 mmHg 36%
    16:00 +31°C° 0 mm 1 mps 688 mmHg 36%
    17:00 +29°C° 0.1 mm 1 mps 688 mmHg 43%
    18:00 +27°C° 0.1 mm 1 mps 687 mmHg 50%
    19:00 +25°C° 0.1 mm 2 mps 687 mmHg 57%
    20:00 +23°C° 0.3 mm 1 mps 687 mmHg 62%
    21:00 +21°C° 0.3 mm 1 mps 687 mmHg 67%
    22:00 +20°C° 0.3 mm 1 mps 687 mmHg 72%
    23:00 +19°C° 0 mm 1 mps 687 mmHg 74%

    Day after tomorrow, 24 July, Tuesday

    Time Temperature Precipitation Wind Pressure Humidity
    00:00 +19°C° 0 mm 1 mps 687 mmHg 76%
    01:00 +18°C° 0 mm 1 mps 687 mmHg 78%
    02:00 +18°C° 0 mm 1 mps 687 mmHg 80%
    03:00 +16°C° 0 mm 1 mps 686 mmHg 83%
    04:00 +16°C° 0 mm 1 mps 686 mmHg 85%
    05:00 +16°C° 0 mm 0 mps 687 mmHg 79%
    06:00 +18°C° 0 mm 0 mps 687 mmHg 74%
    07:00 +20°C° 0 mm 0 mps 687 mmHg 69%
    08:00 +22°C° 0 mm 0 mps 687 mmHg 61%
    09:00 +24°C° 0 mm 0 mps 688 mmHg 54%
    10:00 +29°C° 0 mm 1 mps 688 mmHg 47%
    11:00 +30°C° 0 mm 1 mps 687 mmHg 44%
    12:00 +31°C° 0 mm 1 mps 687 mmHg 41%
    13:00 +32°C° 0 mm 1 mps 687 mmHg 38%
    14:00 +32°C° 0 mm 1 mps 687 mmHg 37%
    15:00 +32°C° 0 mm 1 mps 686 mmHg 37%
    16:00 +32°C° 0 mm 1 mps 686 mmHg 36%
    17:00 +30°C° 0 mm 1 mps 686 mmHg 44%
    18:00 +26°C° 0 mm 0 mps 686 mmHg 51%
    19:00 +25°C° 0 mm 0 mps 685 mmHg 58%
    20:00 +23°C° 0 mm 0 mps 685 mmHg 61%
    21:00 +24°C° 0 mm 1 mps 685 mmHg 64%
    22:00 +22°C° 0 mm 1 mps 685 mmHg 68%
    23:00 +21°C° 0 mm 1 mps 685 mmHg 71%

    25 July, Wednesday

    Time Temperature Precipitation Wind Pressure Humidity
    00:00 +21°C° 0 mm 1 mps 685 mmHg 74%
    01:00 +20°C° 0 mm 1 mps 685 mmHg 77%
    02:00 +20°C° 0 mm 1 mps 685 mmHg 79%
    03:00 +19°C° 0 mm 1 mps 685 mmHg 80%
    04:00 +19°C° 0 mm 1 mps 684 mmHg 82%
    05:00 +20°C° 0 mm 1 mps 685 mmHg 77%
    06:00 +22°C° 0 mm 1 mps 685 mmHg 71%
    07:00 +24°C° 0 mm 1 mps 685 mmHg 66%
    08:00 +26°C° 0 mm 2 mps 685 mmHg 60%
    09:00 +28°C° 0 mm 2 mps 685 mmHg 54%
    10:00 +30°C° 0 mm 2 mps 685 mmHg 48%
    11:00 +31°C° 0 mm 2 mps 685 mmHg 44%
    12:00 +33°C° 0 mm 3 mps 685 mmHg 40%
    13:00 +34°C° 0 mm 3 mps 685 mmHg 36%
    14:00 +34°C° 0 mm 3 mps 685 mmHg 36%
    15:00 +34°C° 0 mm 3 mps 684 mmHg 35%
    16:00 +34°C° 0 mm 3 mps 684 mmHg 35%
    17:00 +31°C° 0 mm 2 mps 684 mmHg 42%
    18:00 +29°C° 0 mm 2 mps 684 mmHg 49%
    19:00 +28°C° 0 mm 1 mps 683 mmHg 55%
    20:00 +26°C° 0 mm 1 mps 683 mmHg 57%
    21:00 +25°C° 0 mm 1 mps 683 mmHg 59%
    22:00 +24°C° 0 mm 2 mps 683 mmHg 61%
    23:00 +23°C° 0 mm 1 mps 683 mmHg 63%

    26 July, Thursday

    Time Temperature Precipitation Wind Pressure Humidity
    00:00 +22°C° 0 mm 1 mps 683 mmHg 64%
    01:00 +22°C° 0 mm 1 mps 683 mmHg 66%
    02:00 +21°C° 0.5 mm 1 mps 683 mmHg 72%
    03:00 +21°C° 0.5 mm 1 mps 683 mmHg 78%
    04:00 +20°C° 0.5 mm 1 mps 684 mmHg 85%
    05:00 +20°C° 0.6 mm 1 mps 684 mmHg 85%
    06:00 +21°C° 0.6 mm 1 mps 684 mmHg 86%
    07:00 +21°C° 0.6 mm 1 mps 685 mmHg 86%
    08:00 +23°C° 0.3 mm 2 mps 685 mmHg 79%
    09:00 +25°C° 0.3 mm 2 mps 685 mmHg 71%
    10:00 +27°C° 0.3 mm 2 mps 685 mmHg 63%
    11:00 +27°C° 0.1 mm 3 mps 685 mmHg 61%
    12:00 +28°C° 0.1 mm 3 mps 685 mmHg 59%
    13:00 +29°C° 0.1 mm 3 mps 685 mmHg 57%
    14:00 +29°C° 0 mm 3 mps 685 mmHg 56%
    15:00 +29°C° 0 mm 3 mps 686 mmHg 54%
    16:00 +29°C° 0 mm 2 mps 686 mmHg 53%
    17:00 +28°C° 0 mm 2 mps 686 mmHg 58%
    18:00 +27°C° 0 mm 2 mps 686 mmHg 64%
    19:00 +25°C° 0 mm 2 mps 686 mmHg 70%
    20:00 +24°C° 0.5 mm 1 mps 686 mmHg 75%
    21:00 +23°C° 0.5 mm 1 mps 686 mmHg 80%
    22:00 +21°C° 0.5 mm 1 mps 686 mmHg 85%
    23:00 +21°C° 0.3 mm 1 mps 686 mmHg 87%

    27 July, Friday

    Time Temperature Precipitation Wind Pressure Humidity
    00:00 +19°C° 0.3 mm 2 mps 686 mmHg 88%
    01:00 +18°C° 0.3 mm 2 mps 686 mmHg 90%
    02:00 +18°C° 0.4 mm 2 mps 687 mmHg 90%
    03:00 +17°C° 0.4 mm 3 mps 687 mmHg 91%
    04:00 +17°C° 0.4 mm 3 mps 688 mmHg 91%
    05:00 +16°C° 0.9 mm 3 mps 688 mmHg 91%
    06:00 +16°C° 0.9 mm 3 mps 689 mmHg 90%
    07:00 +14°C° 0.9 mm 4 mps 690 mmHg 90%
    08:00 +15°C° 0.1 mm 4 mps 690 mmHg 84%
    09:00 +17°C° 0.1 mm 4 mps 691 mmHg 78%
    10:00 +18°C° 0.1 mm 4 mps 691 mmHg 72%
    11:00 +19°C° 0 mm 4 mps 692 mmHg 66%
    12:00 +20°C° 0 mm 4 mps 692 mmHg 59%
    13:00 +22°C° 0 mm 3 mps 692 mmHg 53%
    14:00 +22°C° 0 mm 3 mps 692 mmHg 53%
    15:00 +22°C° 0 mm 3 mps 692 mmHg 52%
    16:00 +23°C° 0 mm 2 mps 692 mmHg 52%
    17:00 +21°C° 0.1 mm 2 mps 691 mmHg 58%
    18:00 +19°C° 0.1 mm 2 mps 691 mmHg 64%
    19:00 +19°C° 0.1 mm 1 mps 691 mmHg 69%
    20:00 +18°C° 0.1 mm 1 mps 691 mmHg 71%
    21:00 +18°C° 0.1 mm 1 mps 691 mmHg 73%
    22:00 +16°C° 0.1 mm 1 mps 691 mmHg 75%
    23:00 +15°C° 0 mm 1 mps 690 mmHg 77%
    Show more